Terminal Aerodrome Forecast
Issued by NWS Kansas City/Pleasant Hill, MO

Home | Current Version | Previous Version | Text Only | Print | Product List | Glossary On
Versions: 1 2 3 4 5 6 7 8 9 10 11 12 13 14 15 16
000
FTUS43 KEAX 011722
TAFMCI
TAF
KMCI 011722Z 0118/0218 23005KT P6SM BKN150
     FM012000 20006KT P6SM VCTS SCT050CB SCT200
     FM020100 17005KT P6SM FEW200=

USA.gov is the U.S. government's official web portal to all federal, state and local government web resources and services.